カタログに戻る

STARLINK-2122

運用中通信VLEO
NORAD 47400·PAYLOAD·🇺🇸 United States

打ち上げ Jan 20, 2021 から Cape Canaveral Space Force Station

Loading…

次のパス (今後24時間)

TLE

最新Source: CelesTrak SupGP

元期: Sep 15, 2026, 02:13 UTC

1 47400C 21005BD  26258.09284722 -.00023134  00000+0 -74422-3 0  2584
2 47400  53.1594 212.0884 0001417  75.2809  11.4628 15.31701120    17

AllMySatでSTARLINK-2122をリアルタイム追跡

Download on the App Store